Change the Weather History Date:

Monday, January 27, 2014

  Actual Average Record
Temperature  
Mean Temperature 62 °F -  
Max Temperature 72 °F 64 °F 79 °F (2003)
Min Temperature 53 °F 44 °F 36 °F (2004)
Degree Days  
Heating Degree Days 2    
Growing Degree Days 12 (Base 50)    
Moisture  
Dew Point 29 °F    
Average Humidity 33    
Maximum Humidity 47    
Minimum Humidity 14    
Precipitation  
Precipitation 0.00 in - - ()
Sea Level Pressure  
Sea Level Pressure 29.95 in    
Wind  
Wind Speed 1 mph (SW)    
Max Wind Speed 6 mph    
Max Gust Speed -    
Visibility 10 miles    
Events      
Averages and records for this station are not official NWS values.
T = Trace of Precipitation, MM = Missing Value Source: NWS Daily Summary

Daily Weather History Graph

Daily Weather History Graph

Search for Another Location

Airport or City:

Trip Planner

Search our weather history database for the weather conditions in past years. The results will help you decide how hot, cold, wet, or windy it might be!

Date:

Astronomy

Jan. 27, 2014 Rise Set
Actual Time 7:27 AM MST 5:54 PM MST
Civil Twilight 7:00 AM MST 6:20 PM MST
Nautical Twilight 6:30 AM MST 6:50 PM MST
Astronomical Twilight 6:01 AM MST 7:20 PM MST
Moon 4:10 AM MST (1/27) 2:46 PM MST (1/27)
Length of Visible Light 11h 19m
Length of Day
10h 26m
Waning Crescent, 14% of the Moon is Illuminated
Jan 27
Waning Crescent
Jan 30
New
Feb 6
First Quarter
Feb 14
Full
Feb 22
Last Quarter

Hourly Weather History & Observations

Time (MST) Temp. Dew Point Humidity Pressure Visibility Wind Dir Wind Speed Gust Speed Precip Events Conditions
12:53 AM 55.9 °F 28.9 °F 36% 29.94 in 10.0 mi Calm Calm - N/A   Clear
1:53 AM 54.0 °F 30.9 °F 41% 29.94 in 10.0 mi Calm Calm - N/A   Clear
2:53 AM 53.1 °F 32.0 °F 45% 29.94 in 10.0 mi Calm Calm - N/A   Clear
3:53 AM 54.0 °F 32.0 °F 43% 29.93 in 10.0 mi Calm Calm - N/A   Scattered Clouds
4:53 AM 54.0 °F 32.0 °F 43% 29.94 in 10.0 mi Calm Calm - N/A   Clear
5:53 AM 53.1 °F 33.1 °F 47% 29.95 in 10.0 mi Calm Calm - N/A   Partly Cloudy
6:53 AM 54.0 °F 34.0 °F 47% 29.97 in 10.0 mi Calm Calm - N/A   Partly Cloudy
7:53 AM 54.0 °F 32.0 °F 43% 29.98 in 10.0 mi Calm Calm - N/A   Mostly Cloudy
8:53 AM 55.9 °F 34.0 °F 44% 29.99 in 10.0 mi Calm Calm - N/A   Clear
9:53 AM 59.0 °F 32.0 °F 36% 29.99 in 10.0 mi Calm Calm - N/A   Clear
10:53 AM 61.0 °F 30.9 °F 32% 30.01 in 10.0 mi Calm Calm - N/A   Clear
11:53 AM 66.0 °F 26.1 °F 22% 29.99 in 10.0 mi Calm Calm - N/A   Clear
12:53 PM 68.0 °F 23.0 °F 18% 29.95 in 10.0 mi SE 3.5 mph - N/A   Clear
1:53 PM 70.0 °F 21.9 °F 16% 29.92 in 10.0 mi SW 4.6 mph - N/A   Clear
2:53 PM 71.1 °F 19.9 °F 14% 29.91 in 10.0 mi Calm Calm - N/A   Clear
3:53 PM 72.0 °F 23.0 °F 16% 29.91 in 10.0 mi WSW 5.8 mph - N/A   Clear
4:53 PM 72.0 °F 26.1 °F 18% 29.91 in 10.0 mi West 5.8 mph - N/A   Clear
5:53 PM 69.1 °F 25.0 °F 19% 29.91 in 10.0 mi WSW 3.5 mph - N/A   Clear
6:53 PM 64.0 °F 28.0 °F 26% 29.94 in 10.0 mi Calm Calm - N/A   Clear
7:53 PM 63.0 °F 28.9 °F 28% 29.95 in 10.0 mi Calm Calm - N/A   Clear
8:53 PM 60.1 °F 28.9 °F 31% 29.96 in 10.0 mi Calm Calm - N/A   Clear
9:53 PM 55.9 °F 30.9 °F 39% 29.97 in 10.0 mi Calm Calm - N/A   Clear
10:53 PM 55.0 °F 32.0 °F 42% 29.97 in 10.0 mi Calm Calm - N/A   Clear
11:53 PM 54.0 °F 30.9 °F 41% 29.98 in 10.0 mi Calm Calm - N/A   Clear